Theta_e
296 300 299 297 297 297 294 294 291 293 293 297 298 301 302 302 302 302 303 302 302 302 302 303 303 304 304 305 306 305 302 301 301 301 302 303 306 307 307 306 306 307 307 307
295 300 300 297 300 299 298 297 295 296 295 300 302 301 302 302 302 302 302 303 303 304 304 303 303 303 304 304 305 303 301 301 301 301 302 303 306 306 305 305 306 306 306 306
291 299 297 292 298 299 299 300 299 294 297 301 301 302 302 302 302 303 303 304 304 305 304 304 303 304 303 304 304 302 300 300 301 301 302 304 306 305 305 305 306 306 306 306
291 293 287 296 304 305 302 304 304 303 302 303 303 304 305 303 302 303 305 305 306 305 305 304 303 303 305 303 303 302 300 300 301 301 302 305 305 304 304 304 304 305 306 304
291 289 295 301 303 303 299 299 306 303 304 305 306 305 305 308 307 306 306 306 307 306 305 305 303 303 304 302 301 300 300 299 301 301 302 304 304 303 303 302 304 305 304 304
292 289 288 298 305 309 304 293 304 307 305 304 304 298 301 307 310 310 310 309 308 308 306 304 303 304 302 300 299 298 299 300 301 302 304 303 302 301 302 303 303 304 304 304
289 289 294 302 307 307 293 295 305 307 306 304 301 303 307 309 308 309 310 310 310 306 304 303 303 302 299 299 298 300 300 301 302 304 304 302 301 302 301 302 303 305 303 300
290 288 290 306 306 298 301 301 306 306 307 306 307 308 307 307 307 308 309 309 309 305 303 302 301 300 299 299 300 300 300 301 302 304 303 302 301 300 301 302 303 302 301 299
295 295 301 304 301 304 304 306 307 307 308 308 305 304 306 306 307 307 308 308 307 304 302 300 300 300 299 300 300 300 300 300 303 303 302 303 300 299 300 302 302 302 301 300
298 299 303 306 306 309 309 308 310 310 308 307 305 306 306 307 307 308 309 308 307 303 300 299 300 301 301 301 300 300 300 302 303 303 300 302 300 299 299 298 301 301 301 301
297 301 304 308 310 311 312 312 311 311 309 308 307 307 307 306 307 308 308 309 307 303 300 300 301 301 302 300 301 300 301 303 303 302 299 301 300 295 297 295 294 300 301 301
295 303 303 303 309 312 307 306 307 307 307 308 308 308 308 307 308 308 308 309 306 301 301 301 301 301 301 301 301 301 301 303 301 300 300 300 300 300 293 292 292 292 292 298
299 301 303 305 307 308 306 307 308 308 307 307 308 308 308 308 308 308 309 309 304 302 302 302 301 300 301 302 303 302 302 303 301 299 299 297 298 297 297 298 295 293 292 292
301 303 300 302 303 306 308 308 308 307 308 309 309 309 309 308 308 308 309 307 304 303 303 302 301 300 301 303 303 303 304 300 301 299 298 298 298 297 297 298 299 300 297 295
302 302 301 304 304 304 305 305 305 305 306 307 308 308 309 308 307 308 308 305 304 304 303 302 301 300 302 303 303 303 304 304 303 302 299 298 298 298 298 299 300 300 303 300
302 302 302 302 302 303 304 305 304 305 305 306 306 307 309 309 307 307 305 304 303 302 302 301 300 301 303 303 303 303 305 299 297 301 300 299 300 300 299 298 298 299 299 300
299 299 300 299 302 303 304 305 305 305 306 306 307 308 308 307 306 307 305 304 305 303 304 303 301 302 303 304 303 303 305 305 298 301 301 300 300 301 300 300 301 303 303 300
304 304 302 303 304 304 305 306 306 306 306 307 308 308 307 307 306 305 305 303 303 302 304 303 302 303 302 304 303 303 304 304 304 302 302 301 300 302 303 303 302 303 304 303
302 302 304 305 305 305 306 305 305 306 307 307 306 305 306 306 306 305 303 303 302 302 303 302 300 301 300 302 301 302 305 303 304 304 303 297 302 302 304 307 306 305 306 307
303 305 305 306 307 306 305 306 306 306 307 306 304 304 305 306 305 304 303 304 305 304 303 303 302 302 301 301 297 302 304 303 303 304 303 303 303 303 305 299 307 306 307 308
304 304 304 304 304 306 306 306 305 305 305 305 303 303 302 303 304 304 303 303 305 302 302 299 302 301 301 297 300 302 305 304 302 304 304 304 304 303 304 309 309 308 306 307
302 303 303 302 304 305 305 305 306 306 304 304 303 302 301 301 302 303 303 306 303 294 299 301 301 293 296 292 304 303 304 304 302 303 305 306 306 305 305 307 308 309 309 309
302 302 303 303 303 301 304 305 306 305 304 302 301 300 300 300 301 302 302 303 303 297 299 298 287 284 284 301 303 304 305 303 302 302 303 305 306 306 307 307 308 311 312 311
298 299 298 299 299 298 299 302 304 304 303 301 300 300 301 300 304 305 304 298 293 295 297 293 289 285 286 301 303 303 305 304 303 302 303 295 305 305 306 307 308 309 310 308
299 299 298 297 296 295 295 298 302 301 300 300 300 300 300 304 304 304 304 302 292 298 299 286 285 284 299 302 303 303 305 305 304 302 302 303 304 304 305 306 307 307 309 310
303 301 298 295 295 297 299 300 301 299 299 298 300 301 302 304 304 304 303 299 302 296 298 298 297 298 303 303 303 302 302 302 303 303 301 302 303 304 304 305 307 308 310 309
297 293 295 294 301 302 302 301 299 298 297 300 300 303 304 304 303 301 298 303 302 301 300 300 300 300 302 301 300 300 300 301 295 302 304 301 302 304 305 305 307 308 308 306
Wind_Speed
2 1 2 1 2 1 4 5 5 5 4 7 7 9 8 4 3 4 5 6 7 8 7 7 7 6 4 4 3 1 4 5 6 6 6 7 7 7 7 6 5 5 6 6
1 1 2 1 2 4 3 0 5 3 5 7 3 1 2 1 6 7 5 8 9 8 8 10 7 6 5 3 2 1 4 5 6 6 6 7 7 7 7 6 6 5 5 6
3 2 2 4 3 3 3 4 3 4 5 5 4 2 2 5 6 6 8 10 9 9 9 8 5 3 1 2 2 2 5 5 6 7 7 7 7 7 7 6 6 6 5 4
2 3 1 6 2 4 4 4 3 3 4 1 1 3 5 5 6 8 9 9 9 8 7 2 2 3 2 4 1 4 5 5 6 7 7 7 7 6 6 5 5 5 3 3
4 3 5 4 4 5 4 6 2 1 3 3 3 3 6 6 3 6 6 8 9 5 4 3 5 5 5 3 2 4 5 6 6 7 7 7 7 7 6 5 5 4 2 4
3 4 7 9 2 3 4 6 3 2 1 1 2 2 5 7 6 6 7 6 8 6 2 5 5 5 5 1 3 4 5 6 6 6 6 6 7 7 5 5 4 2 3 4
2 4 7 7 3 4 5 9 2 1 2 3 2 5 4 6 6 4 5 8 7 4 2 5 6 6 4 1 4 4 4 5 6 6 5 5 6 6 5 5 3 4 6 6
3 1 7 5 4 6 7 2 2 1 1 2 2 2 3 5 7 8 9 9 7 3 6 4 5 5 3 2 3 4 4 5 5 4 5 5 6 6 5 5 4 5 5 5
9 8 4 5 2 1 3 3 2 3 2 2 4 4 4 5 7 7 7 6 5 6 4 4 4 4 3 2 3 4 4 4 4 4 6 6 6 6 5 5 4 4 4 4
3 2 5 6 3 2 4 3 4 3 3 2 3 3 5 5 7 7 7 7 5 2 5 5 4 3 2 2 3 3 4 4 3 4 6 6 5 5 5 5 4 4 4 4
3 5 4 2 4 5 4 3 4 3 3 2 2 3 3 5 6 7 7 7 5 2 5 5 4 3 2 2 3 4 4 4 4 4 5 4 5 5 4 3 2 3 3 3
7 7 4 2 3 3 5 4 5 4 2 2 3 3 3 6 5 5 8 8 6 4 6 5 4 3 2 2 3 3 3 3 4 3 3 4 3 3 7 6 8 6 3 1
5 4 4 4 4 4 6 5 4 4 4 2 3 3 3 3 5 7 9 8 3 4 6 5 4 3 1 2 3 3 2 2 4 3 3 2 3 4 4 4 9 9 8 7
4 8 2 3 5 5 7 5 6 6 5 3 4 4 3 3 6 7 9 7 2 5 5 5 4 3 1 3 3 2 2 4 3 1 1 2 4 3 2 3 3 2 4 6
6 2 5 7 6 5 5 5 7 6 4 5 4 4 5 7 7 8 7 2 4 5 5 5 4 2 1 3 3 2 2 2 3 1 2 3 3 3 2 2 4 2 3 5
6 5 7 7 8 6 6 6 6 3 4 4 6 7 7 6 7 7 4 3 4 4 4 4 4 2 2 2 2 1 1 4 4 2 2 3 2 1 2 2 2 2 2 2
9 6 6 5 7 6 6 4 4 1 4 5 6 7 7 6 7 7 4 3 2 3 4 4 4 3 3 2 2 1 1 2 4 2 2 3 2 1 1 1 1 0 2 1
6 9 7 11 10 8 6 4 2 2 3 5 6 6 6 6 7 7 3 4 4 5 3 3 3 3 3 2 2 1 1 2 2 1 1 1 1 2 3 1 2 1 1 2
5 11 10 10 8 7 6 4 2 1 3 5 6 8 7 6 6 4 3 5 4 4 2 3 5 4 3 2 2 1 1 2 2 1 1 1 1 2 2 3 1 1 0 2
10 11 11 9 7 6 6 4 4 3 3 5 6 8 9 9 8 4 2 2 2 2 5 5 4 2 3 3 2 1 2 3 2 1 1 1 0 1 2 1 1 1 2 2
11 10 9 7 6 5 5 4 4 4 4 5 6 7 8 6 5 3 3 2 1 3 5 7 4 2 2 2 1 0 1 2 3 0 2 1 1 1 2 2 2 0 2 1
8 8 7 7 6 4 1 1 2 2 2 4 5 5 7 6 5 3 2 2 2 6 3 2 2 3 1 2 1 1 1 1 2 2 1 1 1 0 2 2 2 0 2 2
6 7 7 7 5 1 2 4 4 1 2 3 4 5 5 4 3 2 2 2 3 5 3 2 3 3 2 1 1 1 1 1 2 2 2 1 1 1 1 2 3 2 2 3
4 3 4 5 3 0 5 5 5 2 1 2 4 4 4 4 3 1 0 6 8 5 3 2 2 2 1 1 1 1 2 2 1 1 1 1 1 1 1 3 3 2 3 3
6 3 3 3 1 3 5 4 4 2 2 2 4 4 5 3 3 1 2 3 7 4 3 1 2 2 1 1 1 2 2 2 1 0 1 1 1 1 2 2 3 3 4 3
5 4 5 5 5 3 4 4 4 2 0 2 3 3 2 2 2 2 3 3 3 3 2 1 1 1 0 3 3 3 2 1 1 0 1 1 2 3 2 2 3 4 5 4
4 3 4 6 4 3 3 4 3 2 2 3 3 2 1 1 1 2 4 3 1 2 2 1 1 1 2 2 2 1 1 1 1 2 2 2 3 3 2 3 3 4 4 4
Wind_Direction
161 127 129 199 319 12 209 216 172 265 228 277 253 220 224 188 139 181 201 232 229 233 239 244 246 250 258 254 230 228 298 302 296 294 291 291 292 300 303 302 298 302 305 313
124 55 9 269 323 290 227 289 262 273 269 213 305 325 59 218 208 225 215 245 250 250 249 244 235 237 239 244 236 318 298 296 295 296 299 297 299 305 307 306 309 310 312 321
240 334 34 350 227 244 270 226 212 237 261 342 357 7 237 231 217 233 238 246 253 251 248 247 229 243 284 241 181 281 302 302 300 303 304 305 308 311 306 315 314 313 314 322
167 21 198 242 246 231 237 269 250 274 321 19 37 292 281 227 205 232 239 258 277 275 292 296 101 132 134 109 345 314 311 304 301 306 308 309 317 312 312 319 324 317 330 350
136 187 285 292 208 182 174 276 193 247 331 36 10 16 323 5 274 288 315 285 270 279 253 149 159 157 123 139 282 327 316 303 305 308 308 322 322 325 324 319 327 338 4 18
138 167 210 239 184 139 99 298 265 173 287 235 84 36 278 334 335 335 314 296 300 290 147 147 156 134 118 102 340 323 302 305 309 308 318 331 339 329 319 317 319 323 51 53
132 224 290 244 177 144 89 239 208 205 217 150 169 199 250 328 340 305 285 317 323 341 245 184 146 118 102 32 337 307 308 316 317 325 344 351 327 344 322 330 336 71 69 49
98 140 273 164 82 165 214 218 188 175 90 102 167 353 350 353 340 343 333 328 320 269 224 114 102 111 117 17 326 312 326 329 330 355 360 352 350 341 344 353 44 66 70 51
171 216 259 277 255 268 155 144 181 142 176 123 51 19 359 343 337 316 309 313 298 250 95 118 129 117 89 0 356 332 348 341 348 8 8 10 358 2 2 7 50 57 58 48
74 269 260 274 270 186 179 172 167 128 105 67 69 15 3 352 345 338 322 316 301 235 139 140 149 145 102 5 348 354 353 354 10 29 16 17 26 10 23 15 30 47 65 54
252 273 278 274 206 170 144 106 101 92 106 100 88 23 1 333 334 325 316 309 306 232 142 150 163 140 77 5 3 3 5 30 38 43 30 13 58 23 15 52 15 29 49 58
217 220 158 195 163 151 121 112 124 121 94 47 57 22 340 334 321 305 314 308 335 110 137 152 150 135 75 27 33 19 24 47 55 39 34 33 28 40 63 62 60 47 26 92
216 155 174 154 118 124 126 125 120 84 39 22 14 5 345 298 303 311 307 325 9 159 150 143 136 120 75 45 54 31 33 64 79 56 35 28 44 43 37 22 56 51 32 43
156 119 93 200 171 122 115 104 81 63 41 34 357 335 299 295 307 315 321 330 94 136 129 129 124 113 93 64 49 32 38 67 87 72 71 65 62 57 73 66 65 10 8 42
197 231 176 125 112 97 84 87 73 52 14 358 344 321 322 322 318 308 319 25 110 125 127 128 120 112 116 90 52 34 15 62 82 79 83 88 81 78 76 63 64 22 17 39
146 133 125 118 123 105 99 81 87 36 354 325 326 316 308 299 294 299 328 140 137 185 150 139 122 149 111 107 55 21 13 78 88 100 97 90 92 130 118 79 67 47 34 16
117 127 127 127 133 124 112 113 105 321 302 326 316 310 314 314 305 317 357 157 143 151 150 141 147 132 108 117 70 351 13 76 109 105 101 101 90 265 191 151 185 136 108 41
172 158 144 138 140 134 131 128 121 11 349 310 317 324 333 336 316 317 334 133 112 100 136 123 129 107 93 106 75 4 28 71 94 140 138 128 116 341 344 310 265 320 49 55
142 124 124 128 136 139 142 147 122 31 3 352 353 336 313 310 324 331 134 137 139 138 170 141 140 118 95 108 91 11 20 63 73 114 146 159 145 359 22 13 226 146 103 117
118 123 127 131 139 141 155 159 135 85 28 6 349 353 346 347 343 6 95 140 152 166 144 148 129 137 113 80 114 6 2 51 55 121 139 213 301 353 328 60 277 175 149 140
129 126 129 139 141 157 128 138 114 65 11 16 6 343 332 328 348 10 87 126 176 144 147 144 142 145 117 109 44 290 332 45 35 37 139 170 200 340 336 343 20 141 138 150
120 127 133 135 148 132 190 199 150 131 37 358 348 344 341 348 349 9 343 278 155 143 119 128 133 109 108 69 4 196 343 40 32 332 108 127 197 130 320 318 346 92 197 201
140 153 144 149 112 200 255 248 248 228 355 357 343 335 329 301 283 270 289 90 118 127 121 118 122 114 69 94 291 264 184 82 48 341 17 52 75 83 315 310 294 276 221 208
107 114 84 94 115 213 260 253 241 216 95 350 338 319 314 319 314 323 39 135 129 136 119 156 113 80 19 341 313 200 150 118 89 339 357 34 50 28 349 330 321 284 260 259
39 356 96 158 314 355 268 247 224 225 273 309 337 332 308 284 249 312 122 113 123 119 141 164 83 356 292 332 95 111 126 124 128 183 15 354 7 352 332 338 335 326 314 286
70 42 331 303 276 238 202 194 220 247 283 319 328 312 309 339 75 106 117 128 125 130 181 180 161 198 3 80 85 96 84 66 12 292 262 304 327 317 320 326 323 326 324 301
24 298 261 282 272 238 217 209 209 250 206 244 278 263 252 251 144 136 138 163 159 180 182 168 229 120 105 74 53 65 58 35 7 312 283 273 303 296 298 310 316 315 319 313